Location: Cicognara
(44.9500°N, 10.4667°E)
Time: 22:16:33
(UTC+00:00)

Cosmos 1606 Rocket - Pass Details

Date: 20 June 2021
Orbit: 602 x 632 km, 82.5° (Epoch: 23 July)

Event Time Altitude Azimuth Distance (km) Brightness Sun altitude
Rises 21:34:08 0° 352° (N) 2,934 8.4 -17.5°
Reaches altitude 10° 21:36:24 10° 354° (N) 2,019 7.3 -17.7°
Maximum altitude 21:40:53 77° 81° (E) 649 3.5 -18.0°
Enters shadow 21:42:30 39° 160° (SSE) 949 4.0 -18.1°
